Home   Weather   Simi Valley   Past weeks

Flag for USA Past Weather in Simi Valley, California, USA — Yesterday and Last 2 Weeks

75 °F

Partly sunny.

Feels Like: 77 °F
Forecast: 59 / 74 °F
Wind: 12 mph from South

Location: Van Nuys Airport

Current Time: Oct 23, 2016 at 5:03:24 PM

Latest Report: Oct 23, 2016 at 3:51 PM

Visibility: 10 mi

Pressure: 29.97 "Hg

Humidity: 40%

Dew Point: 49 °F

Location of Simi ValleyLocation

Past Weather in Simi Valley — Graph


Simi Valley Temperature Yesterday

Maximum temperature yesterday: 85 °F (at 12:51 PM)
Minimum temperature yesterday: 55 °F (at 6:51 AM)
Average temperature yesterday: 70 °F

High & Low Weather Summary for the Past Weeks

High94 °F (Oct 9, 1:51 PM)100% (Oct 14, 3:51 AM)30.08 "Hg (Oct 14, 3:51 AM)
Low54 °F (Oct 13, 5:51 AM)5% (Oct 20, 12:51 PM)29.79 "Hg (Oct 21, 5:51 PM)
Average70 °F50%29.94 "Hg
* Reported Oct 8 3:51 PM — Oct 23 3:51 PM, Simi Valley, Weather by CustomWeather, © 2016

Note: Actual official high and low records may vary slightly from our data, if they occured in-between our weather recording intervals... More about our weather records


Simi Valley Weather History for the Previous 24 Hours

Scroll right to see more
Time TempWeatherWind HumidityBarometerVisibility
3:51 PM
Sun, Oct 23
75 °FPartly sunny.12 mph40%29.97 "Hg10 mi
2:51 PM79 °FBroken clouds.10 mph28%29.94 "Hg10 mi
1:51 PM82 °FPartly sunny.13 mph16%29.95 "Hg10 mi
12:51 PM79 °FSunny.7 mph21%29.97 "Hg10 mi
11:51 AM74 °FSunny.7 mph32%30.01 "Hg10 mi
10:51 AM72 °FScattered clouds.No wind37%30.03 "Hg10 mi
9:51 AM71 °FSunny.3 mph38%30.01 "Hg10 mi
8:51 AM64 °FSunny.No wind52%30.00 "Hg10 mi
7:51 AM59 °FSunny.No wind64%29.98 "Hg10 mi
6:51 AM60 °FClear.3 mph60%29.96 "Hg10 mi
5:51 AM60 °FClear.No wind58%29.94 "Hg10 mi
4:51 AM59 °FClear.No wind60%29.93 "Hg10 mi
3:51 AM59 °FClear.No wind62%29.92 "Hg10 mi
2:51 AM60 °FClear.No wind58%29.93 "Hg10 mi
1:51 AM61 °FClear.No wind56%29.93 "Hg10 mi
12:51 AM63 °FClear.No wind52%29.91 "Hg10 mi
11:51 PM
Sat, Oct 22
63 °FClear.No wind52%29.90 "Hg10 mi
10:51 PM64 °FClear.3 mph49%29.90 "Hg10 mi
9:51 PM67 °FClear.No wind42%29.88 "Hg10 mi
8:51 PM69 °FClear.No wind41%29.87 "Hg10 mi
7:51 PM71 °FClear.No wind36%29.87 "Hg10 mi
6:51 PM72 °FClear.5 mph33%29.86 "Hg10 mi
5:51 PM76 °FSunny.6 mph25%29.84 "Hg10 mi
Weather by CustomWeather, © 2016

See weather overviewHow to use our weather pages